Location: Boussac
(44.2782°N, 2.3665°E)
Time: 21:42:31
(UTC+00:00)

Cosmos 2221 - Pass Details

Date: 15 May 2026
Orbit: 569 x 587 km, 82.5° (Epoch: 10 June)

Event Time Altitude Azimuth Distance (km) Brightness Sun altitude
Exits shadow 22:03:28 18° 70° (ENE) 1,453 4.4 -22.4°
Drops below altitude 10° 22:05:33 10° 42° (NE) 1,900 5.3 -22.6°
Sets 22:08:14 0° 24° (NNE) 2,808 6.5 -22.8°
